[[{"header":{"parameterUnit":"m.s-1","parameterCategory":1,"la1":30.2991,"la2":30.254,"lo1":-89.0895,"lo2":-89.0444,"dy":0.0017,"dx":0.0017,"nx":28,"ny":28,"refTime":"2025-08-16T09:00:00:Z","depth":0,"parameterNumber":2,"parameterNumberName":"U-component_of_WINDS"},"data":[0,0,0,0,0,0,0,0,0,0,0,0,0,0,0,0,0,0,0,0,0,0,0,0,0,0,0,0,0,0,0,0,0,0,0,0,0,0,0,0,0,0,0,0,0,0,0,0,0,0,0,0,0,0,0,0,0,0,0.6096,0.6096,0,0.614,0.6141,0.6141,0.6116,0.6115,0.6114,0.6112,0.6163,0.6165,0.6168,0,0,0,0,0,0,0,0,0,0,0,0,0,0.5995,0.5997,0.6096,0.6096,0.6097,0.614,0.6141,0.6141,0.6116,0.6115,0.6113,0.6112,0.6162,0.6165,0.6168,0,0,0,0,0,0,0,0,0,0,0,0,0,0.6039,0.5997,0.6096,0.609,0.6089,0.614,0.6141,0.6141,0.6117,0.6115,0.6113,0.6111,0.6161,0.6165,0.6168,0.6229,0,0,0.618,0.6181,0,0,0,0,0,0,0,0,0.6036,0.6043,0.609,0.609,0.609,0.612,0.6123,0.6171,0.6117,0.6106,0.6112,0.611,0.6151,0.6155,0.6168,0.6231,0.6233,0.618,0.6182,0.6184,0.6185,0,0,0,0,0,0,0,0.6033,0.6041,0.6113,0.6091,0.6091,0.6086,0.609,0.6132,0.6139,0.6107,0.6105,0.6111,0.615,0.6164,0.6169,0.6234,0.618,0.6183,0.6186,0.6187,0.635,0.6352,0,0,0,0,0,0,0.603,0.6038,0.6112,0.6115,0.6058,0.6089,0.6094,0.6113,0.6138,0.614,0.6112,0.6109,0.6159,0.6164,0.617,0.6243,0.6184,0.6187,0.619,0.6348,0.6351,0.6353,0,0,0,0,0,0,0.6028,0.6037,0.611,0.6076,0.6085,0.6093,0.6114,0.6115,0.6128,0.6142,0.6143,0.6125,0.6157,0.6165,0.6214,0.6244,0.6189,0.6193,0.6346,0.6349,0.6352,0.6389,0,0,0,0,0,0,0.6025,0.6036,0.6058,0.6077,0.6087,0.6152,0.6116,0.6117,0.6134,0.6131,0.6154,0.6156,0.6156,0.6209,0.6218,0.6249,0.6195,0.6343,0.6347,0.6351,0.6385,0.6393,0.64,0,0,0,0,0,0.6022,0.6068,0.6059,0.6068,0.6114,0.6154,0.616,0.6158,0.6137,0.616,0.6168,0.6155,0.624,0.6214,0.6224,0.6256,0.6341,0.6346,0.6351,0.6382,0.6392,0.64,0,0,0,0,0,0,0.6054,0.607,0.6061,0.6114,0.6133,0.615,0.6178,0.6168,0.6194,0.619,0.6188,0.6194,0.6245,0.6256,0.6227,0.6317,0.6287,0.6294,0.6308,0.6317,0.6324,0.6321,0.6199,0,0,0,0,0,0.6067,0.6097,0.611,0.6155,0.6165,0.617,0.6187,0.6184,0.6204,0.6212,0.6224,0.6246,0.6277,0.6297,0.6327,0.6387,0.6392,0.6414,0.6421,0.6427,0.6433,0.6466,0.6476,0.6369,0.6369,0.6368,0,0,0.6095,0.6108,0.6126,0.6162,0.6176,0.6208,0.6177,0.6212,0.6236,0.6218,0.6265,0.6275,0.6298,0.6353,0.6378,0.6364,0.6464,0.6433,0.6438,0.6441,0.6472,0.6482,0.6491,0.6372,0.6371,0.6371,0,0,0.6162,0.6174,0.6214,0.6228,0.6249,0.6252,0.6262,0.628,0.6286,0.6332,0.6319,0.6349,0.6403,0.642,0.6436,0.651,0.6499,0.652,0.6558,0.659,0.6598,0.6606,0.6633,0.6642,0.6526,0.6526,0.6526,0,0.6195,0.624,0.6236,0.6272,0.6288,0.6272,0.6313,0.6327,0.6358,0.637,0.6354,0.642,0.6435,0.6494,0.6512,0.6525,0.6537,0.6517,0.6597,0.6605,0.6612,0.6637,0.6647,0.6528,0.6528,0.6528,0.6527,0,0.628,0.6312,0.6342,0.6369,0.639,0.6428,0.643,0.6452,0.6447,0.6452,0.6501,0.6517,0.655,0.6564,0.656,0.6622,0.6613,0.6597,0.6567,0.6624,0.6648,0.6658,0.6531,0.6531,0.653,0.6529,0,0,0.6368,0.6393,0.6404,0.6416,0.6439,0.6464,0.6503,0.6533,0.6551,0.6573,0.6606,0.6652,0.6637,0.6655,0.6653,0.6681,0.6739,0.6662,0.6662,0.6676,0.6809,0.6821,0.6832,0.6732,0.6734,0.6735,0.6807,0,0.6437,0.6501,0.6498,0.656,0.659,0.6575,0.6609,0.6627,0.6633,0.6661,0.6668,0.6701,0.6679,0.6689,0.6717,0.6726,0.6766,0.6721,0.6763,0.6765,0.6758,0.6845,0.6857,0.6924,0.6817,0.6818,0.6819,0,0.6525,0.6548,0.6612,0.663,0.6643,0.6672,0.67,0.6727,0.6747,0.675,0.677,0.6764,0.6804,0.6773,0.6829,0.6799,0.6816,0.6824,0.6826,0.683,0.6795,0.6851,0.6946,0.6956,0.6834,0.6833,0.6832,0,0.6583,0.6631,0.6675,0.6686,0.6708,0.673,0.674,0.6759,0.6778,0.6803,0.6815,0.6845,0.6861,0.6885,0.6888,0.6865,0.6944,0.6914,0.6949,0.6949,0.6966,0.6965,0.7065,0.6977,0.6977,0.6977,0.6977,0,0.666,0.67,0.6701,0.6729,0.6773,0.677,0.6815,0.6824,0.6841,0.687,0.686,0.6889,0.689,0.692,0.6922,0.6968,0.6976,0.698,0.698,0.6981,0.698,0.6992,0.6988,0.698,0.6979,0.6978,0.6978,0,0.6732,0.6735,0.6782,0.6799,0.6804,0.6837,0.6852,0.6878,0.6883,0.6921,0.693,0.6939,0.6973,0.6978,0.7019,0.7021,0.7076,0.7071,0.7068,0.7068,0.7102,0.7099,0.7213,0.7228,0.7131,0.7132,0.7133,0,0.6781,0.6811,0.6831,0.6849,0.686,0.6891,0.6909,0.6908,0.6928,0.6954,0.6978,0.7011,0.7037,0.7093,0.7104,0.7135,0.7131,0.7169,0.7136,0.7136,0.7132,0.713,0.7133,0.7176,0.7177,0.7178,0.7178,0,0.6867,0.6867,0.6893,0.6921,0.6943,0.6964,0.6985,0.7001,0.7003,0.7026,0.706,0.708,0.7121,0.7155,0.7185,0.7198,0.7189,0.7189,0.7198,0.7199,0.7196,0.7198,0.7086,0.7186,0.7185,0.7185,0.7184,0.7184,0.6929,0.6955,0.6973,0.7003,0.7018,0.7038,0.7063,0.7071,0.7099,0.7132,0.713,0.7168,0.7189,0.7229,0.7243,0.7274,0.7261,0.7276,0.7279,0.7283,0.7286,0.7191,0.7279,0.7279,0.7279,0.7279,0.7279,0,0.7015,0.7025,0.7053,0.7081,0.7105,0.7093,0.7116,0.7137,0.717,0.7189,0.7215,0.7255,0.7287,0.73,0.7332,0.7354,0.7351,0.7362,0.7361,0.7364,0.7295,0.7283,0.7364,0.7364,0.7364,0.7364,0.7364,0.7364,0.7062,0.7105,0.7108,0.7159,0.717,0.7206,0.7219,0.7238,0.7253,0.7297,0.7323,0.7331,0.7349,0.7382,0.7411,0.7414,0.7427,0.744,0.7442,0.7377,0.7369,0.736,0.7349,0.7443,0.7443,0.7508,0.7509,0.7509]},{"header":{"parameterUnit":"m.s-1","parameterCategory":1,"la1":30.2991,"la2":30.254,"lo1":-89.0895,"lo2":-89.0444,"dy":0.0017,"dx":0.0017,"nx":28,"ny":28,"refTime":"2025-08-16T09:00:00:Z","depth":0,"parameterNumber":3,"parameterNumberName":"V-component_of_WINDS"},"data":[0,0,0,0,0,0,0,0,0,0,0,0,0,0,0,0,0,0,0,0,0,0,0,0,0,0,0,0,0,0,0,0,0,0,0,0,0,0,0,0,0,0,0,0,0,0,0,0,0,0,0,0,0,0,0,0,0,0,1.3922,1.3923,0,1.405,1.4052,1.4053,1.4074,1.4073,1.4072,1.4071,1.4196,1.42,1.4205,0,0,0,0,0,0,0,0,0,0,0,0,0,1.3683,1.3688,1.3921,1.3923,1.3925,1.405,1.4052,1.4053,1.4074,1.4073,1.4072,1.407,1.4195,1.42,1.4205,0,0,0,0,0,0,0,0,0,0,0,0,0,1.3797,1.3689,1.3921,1.395,1.3954,1.405,1.4052,1.4054,1.4075,1.4073,1.4071,1.407,1.4193,1.4199,1.4206,1.4279,0,0,1.4226,1.4229,0,0,0,0,0,0,0,0,1.379,1.3805,1.3944,1.3949,1.3953,1.4045,1.4014,1.4129,1.4075,1.4029,1.4071,1.4069,1.4147,1.4157,1.4184,1.4285,1.429,1.4226,1.423,1.4233,1.4235,0,0,0,0,0,0,0,1.3782,1.38,1.3972,1.3946,1.3952,1.3953,1.3968,1.4036,1.4095,1.4033,1.4034,1.405,1.4149,1.4178,1.4187,1.4292,1.4226,1.4232,1.4236,1.4239,1.4451,1.4453,0,0,0,0,0,0,1.377,1.3793,1.3968,1.3976,1.3866,1.3959,1.3975,1.4017,1.4095,1.4105,1.4051,1.405,1.4168,1.418,1.4192,1.4278,1.4233,1.4239,1.4243,1.445,1.4452,1.4453,0,0,0,0,0,0,1.3765,1.3786,1.3963,1.3885,1.3908,1.3965,1.4011,1.402,1.405,1.4109,1.4118,1.4071,1.4167,1.4183,1.4256,1.4283,1.4242,1.4248,1.4447,1.445,1.4453,1.4455,0,0,0,0,0,0,1.3758,1.3784,1.3816,1.3886,1.3912,1.4028,1.4013,1.4024,1.4062,1.4062,1.413,1.4139,1.4167,1.4246,1.4262,1.4291,1.4253,1.4445,1.4449,1.4452,1.4452,1.4457,1.4461,0,0,0,0,0,1.375,1.3811,1.3817,1.3838,1.3953,1.403,1.4045,1.4077,1.4064,1.4094,1.413,1.4137,1.4277,1.4254,1.4272,1.4303,1.4444,1.4448,1.4451,1.445,1.4456,1.4461,0,0,0,0,0,0,1.3742,1.3821,1.3829,1.3915,1.3966,1.4034,1.4073,1.4083,1.4137,1.4135,1.417,1.4185,1.4255,1.4287,1.4258,1.4374,1.4359,1.4367,1.4352,1.4358,1.4362,1.4352,1.4259,0,0,0,0,0,1.3751,1.381,1.3874,1.3944,1.3969,1.4016,1.4051,1.4071,1.4124,1.4145,1.4187,1.4236,1.429,1.4326,1.438,1.4456,1.4468,1.4486,1.4491,1.4494,1.45,1.4536,1.4544,1.4466,1.4466,1.4466,0,0,1.3769,1.3819,1.3854,1.3944,1.3985,1.4041,1.4034,1.4096,1.4136,1.4154,1.4225,1.4257,1.4313,1.4387,1.4421,1.4415,1.4523,1.4499,1.4501,1.4505,1.4541,1.4548,1.4555,1.4469,1.4468,1.4468,0,0,1.383,1.3876,1.3937,1.3977,1.404,1.407,1.4084,1.4149,1.4171,1.4243,1.4256,1.4302,1.4398,1.4435,1.4467,1.4534,1.4541,1.4551,1.4573,1.4608,1.4614,1.462,1.464,1.4647,1.4556,1.4556,1.4556,0,1.3845,1.3933,1.3966,1.4025,1.4061,1.408,1.4138,1.4175,1.4252,1.4274,1.4267,1.4382,1.4421,1.4501,1.4517,1.4543,1.4557,1.4543,1.4611,1.4617,1.4622,1.4642,1.465,1.4557,1.4557,1.4557,1.4557,0,1.3944,1.4004,1.4044,1.4117,1.4158,1.4217,1.4255,1.4291,1.4306,1.4335,1.4404,1.4451,1.4512,1.4533,1.4548,1.4613,1.4607,1.4604,1.4589,1.463,1.4648,1.4656,1.4558,1.4558,1.4557,1.4557,0,0,1.4008,1.4094,1.4109,1.4139,1.4206,1.4251,1.4307,1.4368,1.4396,1.4446,1.4491,1.4568,1.4564,1.46,1.4619,1.465,1.4694,1.4643,1.4645,1.4648,1.4763,1.4762,1.4771,1.4699,1.47,1.4702,1.4757,0,1.4074,1.4178,1.4207,1.4293,1.4345,1.436,1.4407,1.4451,1.4478,1.4524,1.4552,1.4605,1.4599,1.4619,1.4651,1.4682,1.4717,1.4679,1.4737,1.4739,1.4721,1.4782,1.4783,1.4833,1.4765,1.4766,1.4767,0,1.4167,1.4218,1.4309,1.4364,1.4387,1.443,1.4484,1.4529,1.4576,1.4593,1.463,1.4644,1.4698,1.468,1.4752,1.4725,1.4749,1.4767,1.477,1.4776,1.4755,1.4786,1.4851,1.4857,1.4779,1.4778,1.4778,0,1.4199,1.4291,1.4356,1.4382,1.4448,1.4477,1.4506,1.4552,1.4584,1.463,1.465,1.4702,1.4729,1.4766,1.4792,1.4777,1.486,1.4845,1.4872,1.4871,1.4889,1.4887,1.4956,1.4908,1.4908,1.4908,1.4907,0,1.427,1.4324,1.437,1.441,1.4469,1.4499,1.4555,1.4583,1.4623,1.4665,1.4681,1.4719,1.4752,1.4793,1.4814,1.4867,1.488,1.4892,1.4897,1.489,1.4888,1.4906,1.4903,1.491,1.4909,1.4909,1.4908,0,1.4317,1.4351,1.4421,1.4477,1.4492,1.4532,1.4578,1.4614,1.464,1.4693,1.4707,1.4746,1.4795,1.4825,1.4887,1.49,1.4958,1.4962,1.4942,1.4944,1.4968,1.4964,1.505,1.506,1.5007,1.5007,1.5008,0,1.4359,1.44,1.4459,1.4489,1.4518,1.4566,1.4598,1.4627,1.4659,1.4712,1.4741,1.4791,1.4833,1.491,1.4942,1.4988,1.4991,1.5018,1.4999,1.4989,1.4988,1.4985,1.4987,1.5021,1.5021,1.5022,1.5022,0,1.4428,1.4441,1.4488,1.4539,1.4577,1.4619,1.466,1.4682,1.4717,1.4751,1.4802,1.4834,1.4896,1.4944,1.4991,1.5017,1.5023,1.5027,1.5036,1.5029,1.5014,1.5019,1.4949,1.5026,1.5025,1.5025,1.5025,1.5025,1.4472,1.4507,1.4553,1.4602,1.4636,1.4672,1.4708,1.4737,1.478,1.4834,1.4847,1.4898,1.4938,1.5003,1.5029,1.5067,1.5063,1.5075,1.5078,1.508,1.5079,1.5009,1.5076,1.5076,1.5076,1.5076,1.5076,0,1.4539,1.4568,1.4613,1.4669,1.4707,1.4711,1.4754,1.4785,1.4831,1.4868,1.4908,1.4963,1.5008,1.5042,1.5087,1.511,1.5114,1.5121,1.5118,1.5123,1.5082,1.507,1.5116,1.5116,1.5116,1.5116,1.5116,1.5116,1.4578,1.4637,1.4654,1.4727,1.4755,1.4806,1.483,1.4862,1.4892,1.4953,1.499,1.5012,1.5047,1.5093,1.5133,1.5141,1.5156,1.5162,1.517,1.5131,1.5127,1.5122,1.511,1.5165,1.5165,1.5207,1.5208,1.5208]}]]